Year,Month,Day,Hour,Minute,Value (Times are PST for temperature in C)
2011,04,23,00,00,3.90
2011,04,23,00,01,3.90
2011,04,23,00,02,3.90
2011,04,23,00,03,3.90
2011,04,23,00,04,3.90
2011,04,23,00,05,3.90
2011,04,23,00,06,3.80
2011,04,23,00,07,3.80
2011,04,23,00,08,3.80
2011,04,23,00,09,3.80
2011,04,23,00,10,3.80
2011,04,23,00,11,3.80
2011,04,23,00,12,3.80
2011,04,23,00,13,3.80
2011,04,23,00,14,3.80
2011,04,23,00,15,3.70
2011,04,23,00,16,3.70
2011,04,23,00,17,3.70
2011,04,23,00,18,3.70
2011,04,23,00,19,3.70
2011,04,23,00,20,3.70
2011,04,23,00,21,3.70
2011,04,23,00,22,3.70
2011,04,23,00,23,3.60
2011,04,23,00,24,3.60
2011,04,23,00,25,3.60
2011,04,23,00,26,3.60
2011,04,23,00,27,3.60
2011,04,23,00,28,3.60
2011,04,23,00,29,3.60
2011,04,23,00,30,3.50
2011,04,23,00,31,3.50
2011,04,23,00,32,3.50
2011,04,23,00,33,3.50
2011,04,23,00,34,3.40
2011,04,23,00,35,3.40
2011,04,23,00,36,3.40
2011,04,23,00,37,3.40
2011,04,23,00,38,3.40
2011,04,23,00,39,3.30
2011,04,23,00,40,3.30
2011,04,23,00,41,3.30
2011,04,23,00,42,3.30
2011,04,23,00,43,3.20
2011,04,23,00,44,3.20
2011,04,23,00,45,3.20
2011,04,23,00,46,3.20
2011,04,23,00,47,3.10
2011,04,23,00,48,3.10
2011,04,23,00,49,3.10
2011,04,23,00,50,3.10
2011,04,23,00,51,3.10
2011,04,23,00,52,3.10
2011,04,23,00,53,3.10
2011,04,23,00,54,3.10
2011,04,23,00,55,3.10
2011,04,23,00,56,3.10
2011,04,23,00,57,3.10
2011,04,23,00,58,3.10
2011,04,23,00,59,3.10
2011,04,23,01,00,3.10
2011,04,23,01,01,3.10
2011,04,23,01,02,3.10
2011,04,23,01,03,3.10
2011,04,23,01,04,3.10
2011,04,23,01,05,3.00
2011,04,23,01,06,3.00
2011,04,23,01,07,3.00
2011,04,23,01,08,3.00
2011,04,23,01,09,2.90
2011,04,23,01,10,2.90
2011,04,23,01,11,2.90
2011,04,23,01,12,2.90
2011,04,23,01,13,2.90
2011,04,23,01,14,2.90
2011,04,23,01,15,2.90
2011,04,23,01,16,2.90
2011,04,23,01,17,2.90
2011,04,23,01,18,2.90
2011,04,23,01,19,2.80
2011,04,23,01,20,2.80
2011,04,23,01,21,2.80
2011,04,23,01,22,2.80
2011,04,23,01,23,2.70
2011,04,23,01,24,2.70
2011,04,23,01,25,2.70
2011,04,23,01,26,2.60
2011,04,23,01,27,2.60
2011,04,23,01,28,2.60
2011,04,23,01,29,2.60
2011,04,23,01,30,2.50
2011,04,23,01,31,2.50
2011,04,23,01,32,2.40
2011,04,23,01,33,2.40
2011,04,23,01,34,2.40
2011,04,23,01,35,2.40
2011,04,23,01,36,2.40
2011,04,23,01,37,2.40
2011,04,23,01,38,2.40
2011,04,23,01,39,2.40
2011,04,23,01,40,2.40
2011,04,23,01,41,2.40
2011,04,23,01,42,2.40
2011,04,23,01,43,2.40
2011,04,23,01,44,2.30
2011,04,23,01,45,2.30
2011,04,23,01,46,2.30
2011,04,23,01,47,2.30
2011,04,23,01,48,2.20
2011,04,23,01,49,2.20
2011,04,23,01,50,2.20
2011,04,23,01,51,2.20
2011,04,23,01,52,2.30
2011,04,23,01,53,2.30
2011,04,23,01,54,2.40
2011,04,23,01,55,2.40
2011,04,23,01,56,2.40
2011,04,23,01,57,2.50
2011,04,23,01,58,2.50
2011,04,23,01,59,2.60
2011,04,23,02,00,2.60
2011,04,23,02,01,2.60
2011,04,23,02,02,2.60
2011,04,23,02,03,2.60
2011,04,23,02,04,2.60
2011,04,23,02,05,2.60
2011,04,23,02,06,2.60
2011,04,23,02,07,2.60
2011,04,23,02,08,2.60
2011,04,23,02,09,2.60
2011,04,23,02,10,2.60
2011,04,23,02,11,2.60
2011,04,23,02,12,2.60
2011,04,23,02,13,2.60
2011,04,23,02,14,2.60
2011,04,23,02,15,2.60
2011,04,23,02,16,2.60
2011,04,23,02,17,2.60
2011,04,23,02,18,2.60
2011,04,23,02,19,2.60
2011,04,23,02,20,2.60
2011,04,23,02,21,2.60
2011,04,23,02,22,2.60
2011,04,23,02,23,2.60
2011,04,23,02,24,2.70
2011,04,23,02,25,2.70
2011,04,23,02,26,2.70
2011,04,23,02,27,2.70
2011,04,23,02,28,2.70
2011,04,23,02,29,2.70
2011,04,23,02,30,2.70
2011,04,23,02,31,2.70
2011,04,23,02,32,2.70
2011,04,23,02,33,2.60
2011,04,23,02,34,2.60
2011,04,23,02,35,2.60
2011,04,23,02,36,2.60
2011,04,23,02,37,2.60
2011,04,23,02,38,2.60
2011,04,23,02,39,2.50
2011,04,23,02,40,2.50
2011,04,23,02,41,2.50
2011,04,23,02,42,2.50
2011,04,23,02,43,2.40
2011,04,23,02,44,2.40
2011,04,23,02,45,2.40
2011,04,23,02,46,2.40
2011,04,23,02,47,2.30
2011,04,23,02,48,2.30
2011,04,23,02,49,2.30
2011,04,23,02,50,2.30
2011,04,23,02,51,2.30
2011,04,23,02,52,2.30
2011,04,23,02,53,2.20
2011,04,23,02,54,2.20
2011,04,23,02,55,2.20
2011,04,23,02,56,2.20
2011,04,23,02,57,2.20
2011,04,23,02,58,2.10
2011,04,23,02,59,2.10
2011,04,23,03,00,2.10
2011,04,23,03,01,2.00
2011,04,23,03,02,2.00
2011,04,23,03,03,2.00
2011,04,23,03,04,1.90
2011,04,23,03,05,1.90
2011,04,23,03,06,1.90
2011,04,23,03,07,1.90
2011,04,23,03,08,1.90
2011,04,23,03,09,1.90
2011,04,23,03,10,1.90
2011,04,23,03,11,1.90
2011,04,23,03,12,1.90
2011,04,23,03,13,1.90
2011,04,23,03,14,1.90
2011,04,23,03,15,1.90
2011,04,23,03,16,1.90
2011,04,23,03,17,1.90
2011,04,23,03,18,1.90
2011,04,23,03,19,2.00
2011,04,23,03,20,2.00
2011,04,23,03,21,2.00
2011,04,23,03,22,2.10
2011,04,23,03,23,2.10
2011,04,23,03,24,2.20
2011,04,23,03,25,2.20
2011,04,23,03,26,2.30
2011,04,23,03,27,2.40
2011,04,23,03,28,2.40
2011,04,23,03,29,2.50
2011,04,23,03,30,2.50
2011,04,23,03,31,2.60
2011,04,23,03,32,2.70
2011,04,23,03,33,2.70
2011,04,23,03,34,2.70
2011,04,23,03,35,2.70
2011,04,23,03,36,2.70
2011,04,23,03,37,2.60
2011,04,23,03,38,2.60
2011,04,23,03,39,2.60
2011,04,23,03,40,2.60
2011,04,23,03,41,2.60
2011,04,23,03,42,2.60
2011,04,23,03,43,2.60
2011,04,23,03,44,2.60
2011,04,23,03,45,2.60
2011,04,23,03,46,2.70
2011,04,23,03,47,2.70
2011,04,23,03,48,2.70
2011,04,23,03,49,2.70
2011,04,23,03,50,2.70
2011,04,23,03,51,2.70
2011,04,23,03,52,2.70
2011,04,23,03,53,2.70
2011,04,23,03,54,2.70
2011,04,23,03,55,2.70
2011,04,23,03,56,2.70
2011,04,23,03,57,2.70
2011,04,23,03,58,2.70
2011,04,23,03,59,2.80
2011,04,23,04,00,2.80
2011,04,23,04,01,2.90
2011,04,23,04,02,3.00
2011,04,23,04,03,3.00
2011,04,23,04,04,3.10
2011,04,23,04,05,3.20
2011,04,23,04,06,3.30
2011,04,23,04,07,3.40
2011,04,23,04,08,3.40
2011,04,23,04,09,3.50
2011,04,23,04,10,3.50
2011,04,23,04,11,3.50
2011,04,23,04,12,3.60
2011,04,23,04,13,3.60
2011,04,23,04,14,3.70
2011,04,23,04,15,3.80
2011,04,23,04,16,3.80
2011,04,23,04,17,3.80
2011,04,23,04,18,3.80
2011,04,23,04,19,3.80
2011,04,23,04,20,3.80
2011,04,23,04,21,3.80
2011,04,23,04,22,3.80
2011,04,23,04,23,3.80
2011,04,23,04,24,3.80
2011,04,23,04,25,3.80
2011,04,23,04,26,3.80
2011,04,23,04,27,3.80
2011,04,23,04,28,3.80
2011,04,23,04,29,3.90
2011,04,23,04,30,3.90
2011,04,23,04,31,4.00
2011,04,23,04,32,4.00
2011,04,23,04,33,4.10
2011,04,23,04,34,4.10
2011,04,23,04,35,4.20
2011,04,23,04,36,4.30
2011,04,23,04,37,4.30
2011,04,23,04,38,4.40
2011,04,23,04,39,4.50
2011,04,23,04,40,4.50
2011,04,23,04,41,4.60
2011,04,23,04,42,4.60
2011,04,23,04,43,4.70
2011,04,23,04,44,4.70
2011,04,23,04,45,4.70
2011,04,23,04,46,4.80
2011,04,23,04,47,4.80
2011,04,23,04,48,4.80
2011,04,23,04,49,4.80
2011,04,23,04,50,4.80
2011,04,23,04,51,4.80
2011,04,23,04,52,4.80
2011,04,23,04,53,4.80
2011,04,23,04,54,4.80
2011,04,23,04,55,4.70
2011,04,23,04,56,4.70
2011,04,23,04,57,4.70
2011,04,23,04,58,4.60
2011,04,23,04,59,4.60
2011,04,23,05,00,4.50
2011,04,23,05,01,4.40
2011,04,23,05,02,4.40
2011,04,23,05,03,4.50
2011,04,23,05,04,4.50
2011,04,23,05,05,4.60
2011,04,23,05,06,4.60
2011,04,23,05,07,4.70
2011,04,23,05,08,4.80
2011,04,23,05,09,4.80
2011,04,23,05,10,4.80
2011,04,23,05,11,4.90
2011,04,23,05,12,4.90
2011,04,23,05,13,4.90
2011,04,23,05,14,4.90
2011,04,23,05,15,4.90
2011,04,23,05,16,4.90
2011,04,23,05,17,4.90
2011,04,23,05,18,4.90
2011,04,23,05,19,4.90
2011,04,23,05,20,4.80
2011,04,23,05,21,4.80
2011,04,23,05,22,4.80
2011,04,23,05,23,4.80
2011,04,23,05,24,4.90
2011,04,23,05,25,4.90
2011,04,23,05,26,4.90
2011,04,23,05,27,4.90
2011,04,23,05,28,4.90
2011,04,23,05,29,4.90
2011,04,23,05,30,4.90
2011,04,23,05,31,4.90
2011,04,23,05,32,4.90
2011,04,23,05,33,5.00
2011,04,23,05,34,5.00
2011,04,23,05,35,5.00
2011,04,23,05,36,5.00
2011,04,23,05,37,5.00
2011,04,23,05,38,5.10
2011,04,23,05,39,5.10
2011,04,23,05,40,5.10
2011,04,23,05,41,5.10
2011,04,23,05,42,5.10
2011,04,23,05,43,5.10
2011,04,23,05,44,5.20
2011,04,23,05,45,5.20
2011,04,23,05,46,5.20
2011,04,23,05,47,5.20
2011,04,23,05,48,5.20
2011,04,23,05,49,5.20
2011,04,23,05,50,5.20
2011,04,23,05,51,5.20
2011,04,23,05,52,5.30
2011,04,23,05,53,5.30
2011,04,23,05,54,5.30
2011,04,23,05,55,5.30
2011,04,23,05,56,5.30
2011,04,23,05,57,5.30
2011,04,23,05,58,5.30
2011,04,23,05,59,5.30
2011,04,23,06,00,5.30
2011,04,23,06,01,5.30
2011,04,23,06,02,5.30
2011,04,23,06,03,5.30
2011,04,23,06,04,5.30
2011,04,23,06,05,5.20
2011,04,23,06,06,5.20
2011,04,23,06,07,5.20
2011,04,23,06,08,5.10
2011,04,23,06,09,5.10
2011,04,23,06,10,5.10
2011,04,23,06,11,5.10
2011,04,23,06,12,5.00
2011,04,23,06,13,5.00
2011,04,23,06,14,5.00
2011,04,23,06,15,5.00
2011,04,23,06,16,5.00
2011,04,23,06,17,4.90
2011,04,23,06,18,4.90
2011,04,23,06,19,4.90
2011,04,23,06,20,4.90
2011,04,23,06,21,4.90
2011,04,23,06,22,4.80
2011,04,23,06,23,4.80
2011,04,23,06,24,4.80
2011,04,23,06,25,4.80
2011,04,23,06,26,4.70
2011,04,23,06,27,4.70
2011,04,23,06,28,4.70
2011,04,23,06,29,4.60
2011,04,23,06,30,4.60
2011,04,23,06,31,4.60
2011,04,23,06,32,4.60
2011,04,23,06,33,4.60
2011,04,23,06,34,4.60
2011,04,23,06,35,4.60
2011,04,23,06,36,4.60
2011,04,23,06,37,4.60
2011,04,23,06,38,4.60
2011,04,23,06,39,4.60
2011,04,23,06,40,4.60
2011,04,23,06,41,4.60
2011,04,23,06,42,4.50
2011,04,23,06,43,4.50
2011,04,23,06,44,4.50
2011,04,23,06,45,4.50
2011,04,23,06,46,4.50
2011,04,23,06,47,4.60
2011,04,23,06,48,4.60
2011,04,23,06,49,4.60
2011,04,23,06,50,4.70
2011,04,23,06,51,4.70
2011,04,23,06,52,4.80
2011,04,23,06,53,4.80
2011,04,23,06,54,4.80
2011,04,23,06,55,4.90
2011,04,23,06,56,4.90
2011,04,23,06,57,4.90
2011,04,23,06,58,4.90
2011,04,23,06,59,5.00
2011,04,23,07,00,5.00
2011,04,23,07,01,5.10
2011,04,23,07,02,5.10
2011,04,23,07,03,5.10
2011,04,23,07,04,5.10
2011,04,23,07,05,5.20
2011,04,23,07,06,5.30
2011,04,23,07,07,5.40
2011,04,23,07,08,5.50
2011,04,23,07,09,5.60
2011,04,23,07,10,5.60
2011,04,23,07,11,5.70
2011,04,23,07,12,5.80
2011,04,23,07,13,5.90
2011,04,23,07,14,5.90
2011,04,23,07,15,6.00
2011,04,23,07,16,6.00
2011,04,23,07,17,6.10
2011,04,23,07,18,6.10
2011,04,23,07,19,6.10
2011,04,23,07,20,6.20
2011,04,23,07,21,6.20
2011,04,23,07,22,6.20
2011,04,23,07,23,6.30
2011,04,23,07,24,6.30
2011,04,23,07,25,6.30
2011,04,23,07,26,6.40
2011,04,23,07,27,6.40
2011,04,23,07,28,6.40
2011,04,23,07,29,6.50
2011,04,23,07,30,6.60
2011,04,23,07,31,6.60
2011,04,23,07,32,6.70
2011,04,23,07,33,6.70
2011,04,23,07,34,6.70
2011,04,23,07,35,6.80
2011,04,23,07,36,6.80
2011,04,23,07,37,6.90
2011,04,23,07,38,6.90
2011,04,23,07,39,6.90
2011,04,23,07,40,7.00
2011,04,23,07,41,7.00
2011,04,23,07,42,7.10
2011,04,23,07,43,7.10
2011,04,23,07,44,7.10
2011,04,23,07,45,7.20
2011,04,23,07,46,7.20
2011,04,23,07,47,7.30
2011,04,23,07,48,7.30
2011,04,23,07,49,7.30
2011,04,23,07,50,7.40
2011,04,23,07,51,7.40
2011,04,23,07,52,7.40
2011,04,23,07,53,7.50
2011,04,23,07,54,7.60
2011,04,23,07,55,7.60
2011,04,23,07,56,7.60
2011,04,23,07,57,7.70
2011,04,23,07,58,7.70
2011,04,23,07,59,7.80
2011,04,23,08,00,7.80
2011,04,23,08,01,7.80
2011,04,23,08,02,7.90
2011,04,23,08,03,7.90
2011,04,23,08,04,7.90
2011,04,23,08,05,7.90
2011,04,23,08,06,7.90
2011,04,23,08,07,7.90
2011,04,23,08,08,8.00
2011,04,23,08,09,8.00
2011,04,23,08,10,8.00
2011,04,23,08,11,8.10
2011,04,23,08,12,8.10
2011,04,23,08,13,8.10
2011,04,23,08,14,8.10
2011,04,23,08,15,8.10
2011,04,23,08,16,8.10
2011,04,23,08,17,8.10
2011,04,23,08,18,8.10
2011,04,23,08,19,8.20
2011,04,23,08,20,8.20
2011,04,23,08,21,8.20
2011,04,23,08,22,8.20
2011,04,23,08,23,8.20
2011,04,23,08,24,8.20
2011,04,23,08,25,8.30
2011,04,23,08,26,8.30
2011,04,23,08,27,8.30
2011,04,23,08,28,8.30
2011,04,23,08,29,8.30
2011,04,23,08,30,8.30
2011,04,23,08,31,8.30
2011,04,23,08,32,8.40
2011,04,23,08,33,8.40
2011,04,23,08,34,8.50
2011,04,23,08,35,8.50
2011,04,23,08,36,8.60
2011,04,23,08,37,8.60
2011,04,23,08,38,8.70
2011,04,23,08,39,8.70
2011,04,23,08,40,8.70
2011,04,23,08,41,8.80
2011,04,23,08,42,8.80
2011,04,23,08,43,8.80
2011,04,23,08,44,8.70
2011,04,23,08,45,8.70
2011,04,23,08,46,8.70
2011,04,23,08,47,8.80
2011,04,23,08,48,8.80
2011,04,23,08,49,8.80
2011,04,23,08,50,8.80
2011,04,23,08,51,8.80
2011,04,23,08,52,8.80
2011,04,23,08,53,8.80
2011,04,23,08,54,8.90
2011,04,23,08,55,8.90
2011,04,23,08,56,8.90
2011,04,23,08,57,8.90
2011,04,23,08,58,8.90
2011,04,23,08,59,8.80
2011,04,23,09,00,8.70
2011,04,23,09,01,8.60
2011,04,23,09,02,8.60
2011,04,23,09,03,8.60
2011,04,23,09,04,8.60
2011,04,23,09,05,8.60
2011,04,23,09,06,8.60
2011,04,23,09,07,8.60
2011,04,23,09,08,8.60
2011,04,23,09,09,8.70
2011,04,23,09,10,8.70
2011,04,23,09,11,8.70
2011,04,23,09,12,8.70
2011,04,23,09,13,8.70
2011,04,23,09,14,8.70
2011,04,23,09,15,8.60
2011,04,23,09,16,8.60
2011,04,23,09,17,8.60
2011,04,23,09,18,8.60
2011,04,23,09,19,8.50
2011,04,23,09,20,8.50
2011,04,23,09,21,8.50
2011,04,23,09,22,8.50
2011,04,23,09,23,8.50
2011,04,23,09,24,8.40
2011,04,23,09,25,8.40
2011,04,23,09,26,8.50
2011,04,23,09,27,8.50
2011,04,23,09,28,8.60
2011,04,23,09,29,8.60
2011,04,23,09,30,8.70
2011,04,23,09,31,8.70
2011,04,23,09,32,8.80
2011,04,23,09,33,8.70
2011,04,23,09,34,8.70
2011,04,23,09,35,8.70
2011,04,23,09,36,8.70
2011,04,23,09,37,8.70
2011,04,23,09,38,8.70
2011,04,23,09,39,8.70
2011,04,23,09,40,8.80
2011,04,23,09,41,8.80
2011,04,23,09,42,8.90
2011,04,23,09,43,8.90
2011,04,23,09,44,9.00
2011,04,23,09,45,9.10
2011,04,23,09,46,9.10
2011,04,23,09,47,9.20
2011,04,23,09,48,9.20
2011,04,23,09,49,9.20
2011,04,23,09,50,9.20
2011,04,23,09,51,9.20
2011,04,23,09,52,9.20
2011,04,23,09,53,9.20
2011,04,23,09,54,9.20
2011,04,23,09,55,9.20
2011,04,23,09,56,9.30
2011,04,23,09,57,9.20
2011,04,23,09,58,9.20
2011,04,23,09,59,9.20
2011,04,23,10,00,9.20
2011,04,23,10,01,9.20
2011,04,23,10,02,9.20
2011,04,23,10,03,9.20
2011,04,23,10,04,9.20
2011,04,23,10,05,9.10
2011,04,23,10,06,9.10
2011,04,23,10,07,9.20
2011,04,23,10,08,9.20
2011,04,23,10,09,9.30
2011,04,23,10,10,9.30
2011,04,23,10,11,9.30
2011,04,23,10,12,9.40
2011,04,23,10,13,9.40
2011,04,23,10,14,9.40
2011,04,23,10,15,9.40
2011,04,23,10,16,9.40
2011,04,23,10,17,9.40
2011,04,23,10,18,9.40
2011,04,23,10,19,9.30
2011,04,23,10,20,9.30
2011,04,23,10,21,9.40
2011,04,23,10,22,9.40
2011,04,23,10,23,9.40
2011,04,23,10,24,9.50
2011,04,23,10,25,9.50
2011,04,23,10,26,9.60
2011,04,23,10,27,9.50
2011,04,23,10,28,9.50
2011,04,23,10,29,9.40
2011,04,23,10,30,9.50
2011,04,23,10,31,9.50
2011,04,23,10,32,9.60
2011,04,23,10,33,9.60
2011,04,23,10,34,9.60
2011,04,23,10,35,9.60
2011,04,23,10,36,9.70
2011,04,23,10,37,9.80
2011,04,23,10,38,9.90
2011,04,23,10,39,9.90
2011,04,23,10,40,9.90
2011,04,23,10,41,9.90
2011,04,23,10,42,9.80
2011,04,23,10,43,9.70
2011,04,23,10,44,9.70
2011,04,23,10,45,9.70
2011,04,23,10,46,9.70
2011,04,23,10,47,9.70
2011,04,23,10,48,9.70
2011,04,23,10,49,9.80
2011,04,23,10,50,9.80
2011,04,23,10,51,9.80
2011,04,23,10,52,9.80
2011,04,23,10,53,9.80
2011,04,23,10,54,9.80
2011,04,23,10,55,9.90
2011,04,23,10,56,10.00
2011,04,23,10,57,10.00
2011,04,23,10,58,10.10
2011,04,23,10,59,10.20
2011,04,23,11,00,10.10
2011,04,23,11,01,10.10
2011,04,23,11,02,10.00
2011,04,23,11,03,10.00
2011,04,23,11,04,10.00
2011,04,23,11,05,10.10
2011,04,23,11,06,10.20
2011,04,23,11,07,10.30
2011,04,23,11,08,10.20
2011,04,23,11,09,10.20
2011,04,23,11,10,10.20
2011,04,23,11,11,10.20
2011,04,23,11,12,10.20
2011,04,23,11,13,10.20
2011,04,23,11,14,10.10
2011,04,23,11,15,10.10
2011,04,23,11,16,10.20
2011,04,23,11,17,10.20
2011,04,23,11,18,10.20
2011,04,23,11,19,10.30
2011,04,23,11,20,10.40
2011,04,23,11,21,10.50
2011,04,23,11,22,10.50
2011,04,23,11,23,10.50
2011,04,23,11,24,10.50
2011,04,23,11,25,10.50
2011,04,23,11,26,10.50
2011,04,23,11,27,10.50
2011,04,23,11,28,10.50
2011,04,23,11,29,10.60
2011,04,23,11,30,10.70
2011,04,23,11,31,10.70
2011,04,23,11,32,10.70
2011,04,23,11,33,10.60
2011,04,23,11,34,10.50
2011,04,23,11,35,10.50
2011,04,23,11,36,10.60
2011,04,23,11,37,10.70
2011,04,23,11,38,10.70
2011,04,23,11,39,10.70
2011,04,23,11,40,10.80
2011,04,23,11,41,10.80
2011,04,23,11,42,10.70
2011,04,23,11,43,10.70
2011,04,23,11,44,10.60
2011,04,23,11,45,10.60
2011,04,23,11,46,10.70
2011,04,23,11,47,10.70
2011,04,23,11,48,10.80
2011,04,23,11,49,10.90
2011,04,23,11,50,10.90
2011,04,23,11,51,10.90
2011,04,23,11,52,10.90
2011,04,23,11,53,10.90
2011,04,23,11,54,10.90
2011,04,23,11,55,10.90
2011,04,23,11,56,11.00
2011,04,23,11,57,11.00
2011,04,23,11,58,11.00
2011,04,23,11,59,11.10
2011,04,23,12,00,11.10
2011,04,23,12,01,11.20
2011,04,23,12,02,11.30
2011,04,23,12,03,11.30
2011,04,23,12,04,11.30
2011,04,23,12,05,11.30
2011,04,23,12,06,11.30
2011,04,23,12,07,11.20
2011,04,23,12,08,11.20
2011,04,23,12,09,11.10
2011,04,23,12,10,11.10
2011,04,23,12,11,11.10
2011,04,23,12,12,11.10
2011,04,23,12,13,11.10
2011,04,23,12,14,11.10
2011,04,23,12,15,11.20
2011,04,23,12,16,11.20
2011,04,23,12,17,11.20
2011,04,23,12,18,11.20
2011,04,23,12,19,11.20
2011,04,23,12,20,11.20
2011,04,23,12,21,11.20
2011,04,23,12,22,11.30
2011,04,23,12,23,11.40
2011,04,23,12,24,11.40
2011,04,23,12,25,11.30
2011,04,23,12,26,11.40
2011,04,23,12,27,11.50
2011,04,23,12,28,11.50
2011,04,23,12,29,11.50
2011,04,23,12,30,11.50
2011,04,23,12,31,11.50
2011,04,23,12,32,11.50
2011,04,23,12,33,11.50
2011,04,23,12,34,11.60
2011,04,23,12,35,11.70
2011,04,23,12,36,11.70
2011,04,23,12,37,11.70
2011,04,23,12,38,11.60
2011,04,23,12,39,11.60
2011,04,23,12,40,11.60
2011,04,23,12,41,11.50
2011,04,23,12,42,11.50
2011,04,23,12,43,11.50
2011,04,23,12,44,11.50
2011,04,23,12,45,11.60
2011,04,23,12,46,11.60
2011,04,23,12,47,11.70
2011,04,23,12,48,11.70
2011,04,23,12,49,11.80
2011,04,23,12,50,11.90
2011,04,23,12,51,12.00
2011,04,23,12,52,12.00
2011,04,23,12,53,12.10
2011,04,23,12,54,12.10
2011,04,23,12,55,12.10
2011,04,23,12,56,12.10
2011,04,23,12,57,12.10
2011,04,23,12,58,12.10
2011,04,23,12,59,12.00
2011,04,23,13,00,12.00
2011,04,23,13,01,12.00
2011,04,23,13,02,11.90
2011,04,23,13,03,11.90
2011,04,23,13,04,11.90
2011,04,23,13,05,11.90
2011,04,23,13,06,12.00
2011,04,23,13,07,12.10
2011,04,23,13,08,12.10
2011,04,23,13,09,12.20
2011,04,23,13,10,12.20
2011,04,23,13,11,12.20
2011,04,23,13,12,12.20
2011,04,23,13,13,12.20
2011,04,23,13,14,12.30
2011,04,23,13,15,12.30
2011,04,23,13,16,12.40
2011,04,23,13,17,12.40
2011,04,23,13,18,12.30
2011,04,23,13,19,12.30
2011,04,23,13,20,12.30
2011,04,23,13,21,12.40
2011,04,23,13,22,12.50
2011,04,23,13,23,12.60
2011,04,23,13,24,12.60
2011,04,23,13,25,12.70
2011,04,23,13,26,12.70
2011,04,23,13,27,12.80
2011,04,23,13,28,12.80
2011,04,23,13,29,12.80
2011,04,23,13,30,12.80
2011,04,23,13,31,12.70
2011,04,23,13,32,12.70
2011,04,23,13,33,12.70
2011,04,23,13,34,12.80
2011,04,23,13,35,12.90
2011,04,23,13,36,12.90
2011,04,23,13,37,12.90
2011,04,23,13,38,12.90
2011,04,23,13,39,13.00
2011,04,23,13,40,13.10
2011,04,23,13,41,13.10
2011,04,23,13,42,13.20
2011,04,23,13,43,13.30
2011,04,23,13,44,13.40
2011,04,23,13,45,13.40
2011,04,23,13,46,13.40
2011,04,23,13,47,13.40
2011,04,23,13,48,13.40
2011,04,23,13,49,13.50
2011,04,23,13,50,13.50
2011,04,23,13,51,13.50
2011,04,23,13,52,13.50
2011,04,23,13,53,13.40
2011,04,23,13,54,13.30
2011,04,23,13,55,13.20
2011,04,23,13,56,13.10
2011,04,23,13,57,13.00
2011,04,23,13,58,13.00
2011,04,23,13,59,13.10
2011,04,23,14,00,13.10
2011,04,23,14,01,13.00
2011,04,23,14,02,13.00
2011,04,23,14,03,13.00
2011,04,23,14,04,13.00
2011,04,23,14,05,13.00
2011,04,23,14,06,13.00
2011,04,23,14,07,13.10
2011,04,23,14,08,13.10
2011,04,23,14,09,13.10
2011,04,23,14,10,13.20
2011,04,23,14,11,13.20
2011,04,23,14,12,13.20
2011,04,23,14,13,13.20
2011,04,23,14,14,13.20
2011,04,23,14,15,13.20
2011,04,23,14,16,13.20
2011,04,23,14,17,13.20
2011,04,23,14,18,13.20
2011,04,23,14,19,13.30
2011,04,23,14,20,13.40
2011,04,23,14,21,13.50
2011,04,23,14,22,13.60
2011,04,23,14,23,13.60
2011,04,23,14,24,13.60
2011,04,23,14,25,13.60
2011,04,23,14,26,13.60
2011,04,23,14,27,13.60
2011,04,23,14,28,13.50
2011,04,23,14,29,13.60
2011,04,23,14,30,13.60
2011,04,23,14,31,13.70
2011,04,23,14,32,13.80
2011,04,23,14,33,13.90
2011,04,23,14,34,13.90
2011,04,23,14,35,13.90
2011,04,23,14,36,13.90
2011,04,23,14,37,13.90
2011,04,23,14,38,13.80
2011,04,23,14,39,13.80
2011,04,23,14,40,13.80
2011,04,23,14,41,13.80
2011,04,23,14,42,13.80
2011,04,23,14,43,13.80
2011,04,23,14,44,13.70
2011,04,23,14,45,13.70
2011,04,23,14,46,13.80
2011,04,23,14,47,13.90
2011,04,23,14,48,14.00
2011,04,23,14,49,14.20
2011,04,23,14,50,14.20
2011,04,23,14,51,14.30
2011,04,23,14,52,14.30
2011,04,23,14,53,14.30
2011,04,23,14,54,14.20
2011,04,23,14,55,14.20
2011,04,23,14,56,14.10
2011,04,23,14,57,14.10
2011,04,23,14,58,14.10
2011,04,23,14,59,14.10
2011,04,23,15,00,14.10
2011,04,23,15,01,14.10
2011,04,23,15,02,14.10
2011,04,23,15,03,14.10
2011,04,23,15,04,14.10
2011,04,23,15,05,14.10
2011,04,23,15,06,14.10
2011,04,23,15,07,14.10
2011,04,23,15,08,14.10
2011,04,23,15,09,14.10
2011,04,23,15,10,14.10
2011,04,23,15,11,14.20
2011,04,23,15,12,14.20
2011,04,23,15,13,14.20
2011,04,23,15,14,14.20
2011,04,23,15,15,14.30
2011,04,23,15,16,14.30
2011,04,23,15,17,14.30
2011,04,23,15,18,14.40
2011,04,23,15,19,14.40
2011,04,23,15,20,14.40
2011,04,23,15,21,14.40
2011,04,23,15,22,14.40
2011,04,23,15,23,14.40
2011,04,23,15,24,14.40
2011,04,23,15,25,14.40
2011,04,23,15,26,14.40
2011,04,23,15,27,14.40
2011,04,23,15,28,14.50
2011,04,23,15,29,14.60
2011,04,23,15,30,14.60
2011,04,23,15,31,14.50
2011,04,23,15,32,14.40
2011,04,23,15,33,14.30
2011,04,23,15,34,14.30
2011,04,23,15,35,14.20
2011,04,23,15,36,14.30
2011,04,23,15,37,14.30
2011,04,23,15,38,14.30
2011,04,23,15,39,14.30
2011,04,23,15,40,14.30
2011,04,23,15,41,14.30
2011,04,23,15,42,14.30
2011,04,23,15,43,14.20
2011,04,23,15,44,14.20
2011,04,23,15,45,14.20
2011,04,23,15,46,14.20
2011,04,23,15,47,14.30
2011,04,23,15,48,14.40
2011,04,23,15,49,14.50
2011,04,23,15,50,14.60
2011,04,23,15,51,14.70
2011,04,23,15,52,14.80
2011,04,23,15,53,15.00
2011,04,23,15,54,15.00
2011,04,23,15,55,15.10
2011,04,23,15,56,15.20
2011,04,23,15,57,15.20
2011,04,23,15,58,15.10
2011,04,23,15,59,15.00
2011,04,23,16,00,14.90
2011,04,23,16,01,14.80
2011,04,23,16,02,14.70
2011,04,23,16,03,14.60
2011,04,23,16,04,14.60
2011,04,23,16,05,14.60
2011,04,23,16,06,14.60
2011,04,23,16,07,14.70
2011,04,23,16,08,14.70
2011,04,23,16,09,14.70
2011,04,23,16,10,14.70
2011,04,23,16,11,14.80
2011,04,23,16,12,14.80
2011,04,23,16,13,14.90
2011,04,23,16,14,14.90
2011,04,23,16,15,15.00
2011,04,23,16,16,15.00
2011,04,23,16,17,15.00
2011,04,23,16,18,14.90
2011,04,23,16,19,14.90
2011,04,23,16,20,14.80
2011,04,23,16,21,14.70
2011,04,23,16,22,14.70
2011,04,23,16,23,14.60
2011,04,23,16,24,14.60
2011,04,23,16,25,14.70
2011,04,23,16,26,14.70
2011,04,23,16,27,14.80
2011,04,23,16,28,14.90
2011,04,23,16,29,14.90
2011,04,23,16,30,14.90
2011,04,23,16,31,14.90
2011,04,23,16,32,14.90
2011,04,23,16,33,14.90
2011,04,23,16,34,14.90
2011,04,23,16,35,14.80
2011,04,23,16,36,14.80
2011,04,23,16,37,14.80
2011,04,23,16,38,14.80
2011,04,23,16,39,14.80
2011,04,23,16,40,14.90
2011,04,23,16,41,14.90
2011,04,23,16,42,14.90
2011,04,23,16,43,14.90
2011,04,23,16,44,15.00
2011,04,23,16,45,15.00
2011,04,23,16,46,14.90
2011,04,23,16,47,14.90
2011,04,23,16,48,14.80
2011,04,23,16,49,14.80
2011,04,23,16,50,14.80
2011,04,23,16,51,14.80
2011,04,23,16,52,14.80
2011,04,23,16,53,14.80
2011,04,23,16,54,14.80
2011,04,23,16,55,14.80
2011,04,23,16,56,14.80
2011,04,23,16,57,14.80
2011,04,23,16,58,14.70
2011,04,23,16,59,14.70
2011,04,23,17,00,14.80
2011,04,23,17,01,14.80
2011,04,23,17,02,14.80
2011,04,23,17,03,14.80
2011,04,23,17,04,14.80
2011,04,23,17,05,14.80
2011,04,23,17,06,14.80
2011,04,23,17,07,14.80
2011,04,23,17,08,14.80
2011,04,23,17,09,14.80
2011,04,23,17,10,14.80
2011,04,23,17,11,14.80
2011,04,23,17,12,14.90
2011,04,23,17,13,14.80
2011,04,23,17,14,14.80
2011,04,23,17,15,14.80
2011,04,23,17,16,14.80
2011,04,23,17,17,14.80
2011,04,23,17,18,14.80
2011,04,23,17,19,14.80
2011,04,23,17,20,14.80
2011,04,23,17,21,14.80
2011,04,23,17,22,14.80
2011,04,23,17,23,14.80
2011,04,23,17,24,14.80
2011,04,23,17,25,14.80
2011,04,23,17,26,14.80
2011,04,23,17,27,14.80
2011,04,23,17,28,14.80
2011,04,23,17,29,14.80
2011,04,23,17,30,14.90
2011,04,23,17,31,14.90
2011,04,23,17,32,14.90
2011,04,23,17,33,14.90
2011,04,23,17,34,15.00
2011,04,23,17,35,15.00
2011,04,23,17,36,15.00
2011,04,23,17,37,14.90
2011,04,23,17,38,15.00
2011,04,23,17,39,15.00
2011,04,23,17,40,15.10
2011,04,23,17,41,15.10
2011,04,23,17,42,15.10
2011,04,23,17,43,15.10
2011,04,23,17,44,15.10
2011,04,23,17,45,15.20
2011,04,23,17,46,15.20
2011,04,23,17,47,15.20